[[{"header":{"parameterUnit":"m.s-1","parameterCategory":1,"la1":30.2991,"la2":30.254,"lo1":-89.0895,"lo2":-89.0444,"dy":0.0017,"dx":0.0017,"nx":28,"ny":28,"refTime":"2023-09-03T09:00:00:Z","depth":0,"parameterNumber":2,"parameterNumberName":"U-component_of_WINDS"},"data":[0,0,0,0,0,0,0,0,0,0,0,0,0,0,0,0,0,0,0,0,0,0,0,0,0,0,0,0,0,0,0,0,0,0,0,0,0,0,0,0,0,0,0,0,0,0,0,0,0,0,0,0,0,0,0,0,0,0,-2.8037,-2.8037,0,-2.8057,-2.8058,-2.8058,-2.8004,-2.8002,-2.8001,-2.7999,-2.802,-2.8022,-2.8024,0,0,0,0,0,0,0,0,0,0,0,0,0,-2.7952,-2.7953,-2.8037,-2.8037,-2.8038,-2.8057,-2.8058,-2.8058,-2.8004,-2.8002,-2.8,-2.7998,-2.8019,-2.8022,-2.8024,0,0,0,0,0,0,0,0,0,0,0,0,0,-2.7982,-2.7954,-2.8037,-2.8013,-2.8011,-2.8057,-2.8058,-2.8058,-2.8005,-2.8002,-2.8,-2.7997,-2.8018,-2.8022,-2.8025,-2.8095,0,0,-2.8034,-2.8036,0,0,0,0,0,0,0,0,-2.798,-2.7985,-2.8017,-2.8015,-2.8013,-2.8026,-2.8035,-2.807,-2.8005,-2.8007,-2.7999,-2.7996,-2.8024,-2.8026,-2.8036,-2.8096,-2.8096,-2.8035,-2.8037,-2.8038,-2.8039,0,0,0,0,0,0,0,-2.7978,-2.7984,-2.8045,-2.8017,-2.8015,-2.8001,-2.8003,-2.8041,-2.8029,-2.8007,-2.8003,-2.8006,-2.8022,-2.8033,-2.8036,-2.8097,-2.8035,-2.8037,-2.8039,-2.8041,-2.8213,-2.8216,0,0,0,0,0,0,-2.7979,-2.7983,-2.8044,-2.8046,-2.799,-2.8005,-2.8007,-2.8024,-2.8029,-2.8027,-2.8008,-2.8004,-2.8029,-2.8032,-2.8036,-2.8117,-2.8038,-2.8041,-2.8043,-2.821,-2.8214,-2.8217,0,0,0,0,0,0,-2.7978,-2.7985,-2.8044,-2.8013,-2.802,-2.8009,-2.8029,-2.8026,-2.8036,-2.803,-2.8027,-2.8021,-2.8027,-2.8032,-2.808,-2.8117,-2.8042,-2.8045,-2.8207,-2.8211,-2.8215,-2.8281,0,0,0,0,0,0,-2.7975,-2.7985,-2.8012,-2.8014,-2.8021,-2.8088,-2.8031,-2.8028,-2.8042,-2.8036,-2.8041,-2.804,-2.8025,-2.8076,-2.8083,-2.812,-2.8048,-2.8204,-2.8209,-2.8214,-2.8275,-2.8287,-2.8296,0,0,0,0,0,-2.7973,-2.803,-2.8014,-2.8021,-2.8055,-2.809,-2.8094,-2.8076,-2.8045,-2.8071,-2.8067,-2.804,-2.8112,-2.8081,-2.8089,-2.8128,-2.8201,-2.8208,-2.8214,-2.8271,-2.8284,-2.8296,0,0,0,0,0,0,-2.8033,-2.803,-2.8012,-2.8072,-2.8081,-2.8081,-2.8114,-2.8091,-2.811,-2.8104,-2.8081,-2.8082,-2.8135,-2.8136,-2.8101,-2.8195,-2.8151,-2.8159,-2.8192,-2.8205,-2.8215,-2.8214,-2.805,0,0,0,0,0,-2.8053,-2.8082,-2.8078,-2.8131,-2.8137,-2.8125,-2.8139,-2.8124,-2.8134,-2.8137,-2.8137,-2.8147,-2.8171,-2.8188,-2.8211,-2.8275,-2.8275,-2.8306,-2.8316,-2.8325,-2.8332,-2.8365,-2.8378,-2.8236,-2.8236,-2.8236,0,0,-2.8096,-2.8097,-2.8117,-2.8143,-2.8149,-2.8179,-2.8128,-2.8163,-2.8185,-2.8143,-2.8188,-2.8188,-2.8197,-2.8253,-2.8278,-2.8256,-2.8371,-2.8332,-2.8339,-2.8342,-2.8372,-2.8386,-2.8397,-2.824,-2.824,-2.8239,0,0,-2.8188,-2.8192,-2.8237,-2.8243,-2.8252,-2.8243,-2.8254,-2.8256,-2.8255,-2.8299,-2.8268,-2.8294,-2.8337,-2.8345,-2.8354,-2.8448,-2.8423,-2.8456,-2.8511,-2.8543,-2.8554,-2.8564,-2.8596,-2.8608,-2.8463,-2.8463,-2.8463,0,-2.8239,-2.8283,-2.8262,-2.8298,-2.831,-2.8273,-2.8317,-2.8324,-2.8341,-2.8349,-2.8325,-2.8377,-2.8381,-2.8438,-2.8461,-2.847,-2.8481,-2.8455,-2.8554,-2.8564,-2.8572,-2.8603,-2.8615,-2.8467,-2.8467,-2.8466,-2.8466,0,-2.8345,-2.8376,-2.8411,-2.8427,-2.8442,-2.8482,-2.8467,-2.8485,-2.8469,-2.8462,-2.8508,-2.8511,-2.8533,-2.8545,-2.853,-2.86,-2.8586,-2.8558,-2.8514,-2.859,-2.8618,-2.863,-2.8473,-2.8471,-2.847,-2.8469,0,0,-2.8477,-2.848,-2.8493,-2.8499,-2.8505,-2.8529,-2.8566,-2.8587,-2.8603,-2.8615,-2.8646,-2.8683,-2.8657,-2.8668,-2.8652,-2.8681,-2.8753,-2.8649,-2.8649,-2.8668,-2.8829,-2.8849,-2.8863,-2.8737,-2.8739,-2.8741,-2.8828,0,-2.8567,-2.8632,-2.8613,-2.8678,-2.8705,-2.867,-2.8702,-2.871,-2.8704,-2.8727,-2.8721,-2.8747,-2.8711,-2.8717,-2.8744,-2.8739,-2.8785,-2.8732,-2.8764,-2.8766,-2.8763,-2.8878,-2.89,-2.8983,-2.8839,-2.8841,-2.8842,0,-2.8682,-2.8697,-2.8764,-2.8765,-2.8776,-2.8805,-2.8822,-2.8844,-2.8851,-2.8845,-2.8857,-2.8836,-2.8872,-2.8828,-2.8877,-2.8842,-2.8853,-2.8853,-2.8856,-2.8858,-2.8808,-2.8883,-2.9009,-2.9021,-2.886,-2.8858,-2.8857,0,-2.877,-2.8808,-2.8852,-2.8859,-2.8861,-2.8882,-2.8884,-2.8888,-2.8902,-2.8916,-2.8925,-2.8944,-2.8954,-2.8969,-2.8953,-2.8923,-2.9005,-2.8959,-2.9,-2.9001,-2.9019,-2.9018,-2.9148,-2.9028,-2.9028,-2.9028,-2.9027,0,-2.8873,-2.8915,-2.8892,-2.8919,-2.8965,-2.8943,-2.8989,-2.8987,-2.8991,-2.9017,-2.8987,-2.9012,-2.899,-2.9013,-2.9,-2.9042,-2.9048,-2.9044,-2.904,-2.9046,-2.9046,-2.9053,-2.9047,-2.9031,-2.903,-2.903,-2.9029,0,-2.8979,-2.8966,-2.9012,-2.9009,-2.9009,-2.9043,-2.9041,-2.9066,-2.9058,-2.9091,-2.9097,-2.9085,-2.911,-2.9096,-2.9122,-2.9113,-2.9168,-2.9157,-2.9166,-2.9162,-2.9204,-2.92,-2.9342,-2.9359,-2.9229,-2.923,-2.9231,0,-2.9046,-2.9077,-2.9077,-2.9092,-2.9096,-2.912,-2.9133,-2.9112,-2.9127,-2.9136,-2.916,-2.9182,-2.9199,-2.9241,-2.9235,-2.9254,-2.9242,-2.9291,-2.9245,-2.925,-2.9242,-2.924,-2.9243,-2.93,-2.9302,-2.9303,-2.9304,0,-2.9164,-2.9155,-2.9175,-2.9192,-2.9208,-2.9221,-2.9231,-2.9245,-2.9224,-2.9241,-2.9266,-2.9279,-2.9305,-2.9328,-2.9344,-2.9345,-2.9321,-2.9318,-2.9329,-2.9335,-2.9339,-2.9336,-2.919,-2.9315,-2.9314,-2.9313,-2.9313,-2.9312,-2.9252,-2.9278,-2.9281,-2.9304,-2.9309,-2.9319,-2.9341,-2.9336,-2.9356,-2.9375,-2.9361,-2.9391,-2.9395,-2.9415,-2.9419,-2.9441,-2.9422,-2.9437,-2.9441,-2.9445,-2.945,-2.9335,-2.9444,-2.9444,-2.9444,-2.9443,-2.9443,0,-2.9369,-2.9369,-2.9389,-2.9404,-2.9421,-2.9396,-2.9405,-2.9422,-2.9448,-2.9454,-2.9471,-2.9499,-2.952,-2.9514,-2.9533,-2.9552,-2.9542,-2.9558,-2.9556,-2.9557,-2.9467,-2.9456,-2.9566,-2.9566,-2.9566,-2.9566,-2.9566,-2.9566,-2.9431,-2.9473,-2.9464,-2.9508,-2.9507,-2.9535,-2.9543,-2.9551,-2.9556,-2.9588,-2.9605,-2.9601,-2.9602,-2.9621,-2.9639,-2.9637,-2.9645,-2.9665,-2.9659,-2.9575,-2.9563,-2.9551,-2.9541,-2.9667,-2.9667,-2.9746,-2.9747,-2.9748]},{"header":{"parameterUnit":"m.s-1","parameterCategory":1,"la1":30.2991,"la2":30.254,"lo1":-89.0895,"lo2":-89.0444,"dy":0.0017,"dx":0.0017,"nx":28,"ny":28,"refTime":"2023-09-03T09:00:00:Z","depth":0,"parameterNumber":3,"parameterNumberName":"V-component_of_WINDS"},"data":[0,0,0,0,0,0,0,0,0,0,0,0,0,0,0,0,0,0,0,0,0,0,0,0,0,0,0,0,0,0,0,0,0,0,0,0,0,0,0,0,0,0,0,0,0,0,0,0,0,0,0,0,0,0,0,0,0,0,-2.9142,-2.9142,0,-2.9147,-2.9148,-2.9148,-2.9106,-2.9105,-2.9104,-2.9102,-2.9108,-2.9109,-2.911,0,0,0,0,0,0,0,0,0,0,0,0,0,-2.9094,-2.9095,-2.9142,-2.9142,-2.9142,-2.9147,-2.9148,-2.9148,-2.9106,-2.9105,-2.9103,-2.9102,-2.9107,-2.9109,-2.911,0,0,0,0,0,0,0,0,0,0,0,0,0,-2.9108,-2.9095,-2.9142,-2.9122,-2.912,-2.9147,-2.9148,-2.9148,-2.9106,-2.9105,-2.9103,-2.9101,-2.9107,-2.9109,-2.911,-2.9157,0,0,-2.9116,-2.9117,0,0,0,0,0,0,0,0,-2.9108,-2.911,-2.9125,-2.9123,-2.9121,-2.9124,-2.9132,-2.9151,-2.9107,-2.9112,-2.9102,-2.91,-2.9115,-2.9116,-2.9121,-2.9157,-2.9157,-2.9116,-2.9117,-2.9118,-2.9119,0,0,0,0,0,0,0,-2.9107,-2.911,-2.9144,-2.9125,-2.9123,-2.9112,-2.9112,-2.9136,-2.9123,-2.9111,-2.9108,-2.9109,-2.9113,-2.9119,-2.912,-2.9157,-2.9116,-2.9118,-2.9119,-2.912,-2.9231,-2.9232,0,0,0,0,0,0,-2.9108,-2.9109,-2.9144,-2.9144,-2.911,-2.9115,-2.9115,-2.9125,-2.9122,-2.912,-2.9111,-2.9107,-2.9117,-2.9118,-2.912,-2.9173,-2.9118,-2.912,-2.9121,-2.9229,-2.9231,-2.9233,0,0,0,0,0,0,-2.9108,-2.9112,-2.9144,-2.9126,-2.9129,-2.9117,-2.9129,-2.9126,-2.9132,-2.9122,-2.912,-2.9119,-2.9115,-2.9118,-2.9148,-2.9173,-2.9121,-2.9122,-2.9227,-2.923,-2.9232,-2.9281,0,0,0,0,0,0,-2.9106,-2.9112,-2.913,-2.9127,-2.913,-2.9171,-2.9131,-2.9127,-2.9135,-2.913,-2.9129,-2.9127,-2.9114,-2.9145,-2.915,-2.9175,-2.9124,-2.9224,-2.9228,-2.9231,-2.9277,-2.9285,-2.9291,0,0,0,0,0,-2.9105,-2.9144,-2.9131,-2.9135,-2.9152,-2.9173,-2.9175,-2.9159,-2.9137,-2.9155,-2.9148,-2.9127,-2.917,-2.9149,-2.9153,-2.9179,-2.9223,-2.9227,-2.9231,-2.9273,-2.9283,-2.9291,0,0,0,0,0,0,-2.915,-2.9143,-2.9129,-2.9168,-2.9171,-2.9166,-2.9188,-2.917,-2.918,-2.9175,-2.9155,-2.9155,-2.9188,-2.9187,-2.9163,-2.9223,-2.9192,-2.9198,-2.9223,-2.9232,-2.9239,-2.9239,-2.9125,0,0,0,0,0,-2.9165,-2.9182,-2.9175,-2.921,-2.9212,-2.92,-2.9208,-2.9196,-2.9198,-2.92,-2.9196,-2.9199,-2.9213,-2.9223,-2.9235,-2.9276,-2.9275,-2.9296,-2.9304,-2.931,-2.9314,-2.9335,-2.9344,-2.9247,-2.9247,-2.9247,0,0,-2.9195,-2.9193,-2.9205,-2.9219,-2.922,-2.9238,-2.9201,-2.9222,-2.9235,-2.9203,-2.9231,-2.9228,-2.923,-2.9266,-2.9281,-2.9265,-2.9341,-2.9315,-2.932,-2.9321,-2.934,-2.9349,-2.9358,-2.925,-2.9249,-2.9249,0,0,-2.9259,-2.926,-2.9288,-2.929,-2.9292,-2.9284,-2.9291,-2.9288,-2.9285,-2.9312,-2.9288,-2.9303,-2.9328,-2.933,-2.9334,-2.9398,-2.9378,-2.9403,-2.9441,-2.9461,-2.9469,-2.9476,-2.9497,-2.9505,-2.9407,-2.9407,-2.9408,0,-2.9296,-2.9323,-2.9305,-2.9327,-2.9333,-2.9305,-2.9333,-2.9336,-2.9342,-2.9347,-2.9329,-2.9358,-2.9358,-2.9393,-2.9409,-2.9414,-2.942,-2.9402,-2.9469,-2.9476,-2.9482,-2.9502,-2.9511,-2.941,-2.941,-2.941,-2.9409,0,-2.9367,-2.9386,-2.9409,-2.9415,-2.9424,-2.9449,-2.9435,-2.9446,-2.9432,-2.9425,-2.9453,-2.9452,-2.9463,-2.947,-2.9457,-2.9503,-2.9493,-2.9473,-2.9441,-2.9494,-2.9513,-2.9521,-2.9414,-2.9413,-2.9413,-2.9412,0,0,-2.946,-2.9456,-2.9464,-2.9466,-2.9466,-2.948,-2.9504,-2.9514,-2.9524,-2.9529,-2.9547,-2.9569,-2.9549,-2.9554,-2.9542,-2.956,-2.9609,-2.9537,-2.9537,-2.9549,-2.9658,-2.9672,-2.9681,-2.9596,-2.9598,-2.9599,-2.9657,0,-2.9521,-2.9561,-2.9546,-2.9587,-2.9603,-2.9576,-2.9596,-2.9598,-2.9592,-2.9604,-2.9598,-2.9612,-2.9587,-2.9589,-2.9606,-2.9599,-2.963,-2.9595,-2.9612,-2.9613,-2.9611,-2.9691,-2.9707,-2.9762,-2.9664,-2.9666,-2.9666,0,-2.9598,-2.9606,-2.9649,-2.9644,-2.9651,-2.9669,-2.9677,-2.969,-2.9691,-2.9685,-2.9691,-2.9674,-2.9696,-2.9665,-2.9694,-2.9671,-2.9677,-2.9675,-2.9677,-2.9677,-2.9642,-2.9693,-2.9779,-2.9787,-2.9678,-2.9677,-2.9676,0,-2.966,-2.9681,-2.9709,-2.9712,-2.9708,-2.9721,-2.9721,-2.972,-2.9727,-2.9734,-2.9738,-2.9748,-2.9753,-2.976,-2.9746,-2.9725,-2.9777,-2.9745,-2.9772,-2.9773,-2.9784,-2.9783,-2.9872,-2.979,-2.979,-2.979,-2.9789,0,-2.973,-2.9756,-2.9736,-2.9753,-2.9782,-2.9764,-2.9793,-2.9789,-2.9788,-2.9804,-2.9781,-2.9796,-2.9777,-2.9789,-2.9779,-2.9804,-2.9807,-2.9802,-2.9799,-2.9803,-2.9804,-2.9806,-2.9802,-2.9792,-2.9791,-2.9791,-2.979,0,-2.9803,-2.9791,-2.9819,-2.9813,-2.9812,-2.9834,-2.9828,-2.9843,-2.9835,-2.9855,-2.9858,-2.9846,-2.986,-2.9847,-2.986,-2.9852,-2.9886,-2.9878,-2.9886,-2.9883,-2.991,-2.9907,-3.0002,-3.0013,-2.9926,-2.9927,-2.9927,0,-2.9848,-2.9867,-2.9863,-2.9872,-2.9872,-2.9886,-2.9893,-2.9876,-2.9884,-2.9886,-2.9901,-2.9912,-2.9921,-2.9944,-2.9936,-2.9946,-2.9937,-2.9969,-2.9938,-2.9942,-2.9936,-2.9934,-2.9936,-2.9976,-2.9977,-2.9977,-2.9978,0,-2.9928,-2.992,-2.9931,-2.9939,-2.9948,-2.9954,-2.9958,-2.9966,-2.9948,-2.9958,-2.9972,-2.9978,-2.9991,-3.0003,-3.001,-3.0009,-2.999,-2.9988,-2.9995,-2.9999,-3.0002,-3.0,-2.9902,-2.9986,-2.9985,-2.9985,-2.9984,-2.9984,-2.9987,-3.0003,-3.0002,-3.0014,-3.0015,-3.0019,-3.0033,-3.0026,-3.0037,-3.0046,-3.0036,-3.0052,-3.0052,-3.006,-3.006,-3.0073,-3.0059,-3.0069,-3.0071,-3.0073,-3.0077,-3.0001,-3.0074,-3.0074,-3.0074,-3.0074,-3.0073,0,-3.0064,-3.0062,-3.0074,-3.008,-3.0089,-3.0071,-3.0075,-3.0084,-3.0098,-3.01,-3.0108,-3.0123,-3.0134,-3.0127,-3.0137,-3.0148,-3.0139,-3.0151,-3.0149,-3.0149,-3.0089,-3.0082,-3.0157,-3.0157,-3.0157,-3.0157,-3.0157,-3.0157,-3.0106,-3.0131,-3.0124,-3.0149,-3.0146,-3.0162,-3.0165,-3.0169,-3.017,-3.0187,-3.0196,-3.0192,-3.0189,-3.0198,-3.0207,-3.0205,-3.0209,-3.0223,-3.0217,-3.0161,-3.0153,-3.0145,-3.0138,-3.0224,-3.0224,-3.0276,-3.0276,-3.0276]}]]